Weather observations for the past three days for
Hilo, Hilo International Airport
| Date | Time (hst) | Wind (kph) | Vis. (km) | Weather | Sky Cond. | Temperature (ºC) | Relative Humidity | Wind Chill (°C) | Heat Index (°C) | Pressure | Precipitation (cm) | ||||||
|---|---|---|---|---|---|---|---|---|---|---|---|---|---|---|---|---|---|
| Air | Dwpt | 6 hour | altimeter (cm) | sea level (mb) | 1 hr | 3 hr | 6 hr | ||||||||||
| Max. | Min. | ||||||||||||||||
| 03 | 19:53 | NE 17 | 16.09 | Mostly Cloudy | SCT020 BKN029 BKN065 | 23.3 | 20.6 | 23.9 | 22.2 | 85% | 76.35 | 1017.9 | 0.41 | ||||
| 03 | 18:53 | Calm | 16.09 | Overcast | SCT029 OVC065 | 22.2 | 20.6 | 91% | 76.33 | 1017.4 | |||||||
| 03 | 17:53 | SW 7 | 16.09 | Overcast | FEW013 SCT027 OVC065 | 22.2 | 20.6 | 91% | 76.28 | 1016.6 | |||||||
| 03 | 16:53 | SW 13 | 16.09 | Overcast | BKN012 BKN037 OVC065 | 22.2 | 20.6 | 91% | 76.23 | 1016.0 | 0.13 | 0.41 | |||||
| 03 | 15:53 | Vrbl 9 | 8.05 | Light Rain Fog/Mist | FEW014 SCT020 OVC027 | 22.2 | 20.6 | 91% | 76.23 | 1016.0 | 0.25 | ||||||
| 03 | 14:53 | NW 6 | 6.44 | Light Rain | SCT021 BKN029 OVC045 | 23.3 | 20.6 | 85% | 76.23 | 1016.2 | 0.03 | ||||||
| 03 | 13:53 | W 13 | 14.48 | Light Rain | BKN036 OVC050 | 23.9 | 21.1 | 24.4 | 21.7 | 84% | 24 | 76.25 | 1016.3 | 0.66 | |||
| 03 | 12:53 | W 11 | 8.05 | Light Rain | FEW023 BKN039 OVC060 | 23.3 | 20.6 | 85% | 76.28 | 1016.9 | 0.2 | ||||||
| 03 | 11:53 | N 13 | 9.66 | Light Rain | SCT023 BKN037 OVC048 | 22.8 | 20 | 84% | 76.33 | 1017.4 | 0.05 | ||||||
| 03 | 10:53 | NW 13 | 14.48 | Overcast | BKN019 OVC065 | 23.9 | 21.1 | 84% | 24 | 76.35 | 1017.7 | 0.08 | 0.41 | ||||
| 03 | 09:53 | W 11 | 11.27 | Light Rain | SCT012 BKN037 OVC055 | 22.2 | 21.1 | 94% | 76.35 | 1017.7 | 0.1 | ||||||
| 03 | 08:53 | NW 7 | 9.66 | Rain Fog/Mist | FEW020 BKN035 OVC047 | 22.2 | 20.6 | 91% | 76.35 | 1017.8 | 0.23 | ||||||
| 03 | 07:53 | W 13 | 16.09 | Overcast | FEW018 BKN022 OVC060 | 21.7 | 20 | 21.7 | 20.6 | 90% | 76.33 | 1017.5 | 0.08 | 3.35 | |||
| 03 | 06:53 | W 11 | 14.48 | Light Rain | FEW018 BKN022 OVC060 | 20.6 | 20 | 96% | 76.3 | 1016.9 | 0.23 | ||||||
| 03 | 05:53 | W 13 | 14.48 | Light Rain | FEW018 BKN022 OVC046 | 20.6 | 20 | 96% | 76.25 | 1016.4 | 0.25 | ||||||
| 03 | 04:53 | W 11 | 8.05 | Light Rain Fog/Mist | FEW022 SCT031 OVC039 | 21.1 | 20.6 | 97% | 76.23 | 1016.1 | 1.22 | 2.79 | |||||
| 03 | 03:53 | Calm | 2.01 | Heavy Rain Fog/Mist | FEW005 BKN013 OVC022 | 21.1 | 20.6 | 97% | 76.23 | 1016.2 | 0.69 | ||||||
| 03 | 02:53 | SW 13 | 16.09 | Light Rain | FEW015 BKN031 OVC047 | 20.6 | 20 | 96% | 76.23 | 1016.1 | 0.89 | ||||||
| 03 | 00:53 | W 19 | 8.05 | Rain Fog/Mist | BKN014 OVC020 | 21.1 | 20 | 93% | 76.28 | 1016.9 | 0.05 | ||||||
| 02 | 23:53 | SW 7 | 16.09 | Overcast | SCT018 BKN024 OVC060 | 22.8 | 21.1 | 90% | 76.3 | 1017.0 | |||||||
| 02 | 22:53 | E 6 | 16.09 | Overcast | FEW021 SCT032 OVC049 | 23.3 | 20.6 | 85% | 76.3 | 1017.0 | |||||||
| 02 | 21:53 | E 7 | 16.09 | Overcast | FEW022 OVC070 | 23.3 | 20 | 82% | 76.28 | 1016.6 | |||||||
| 02 | 20:53 | E 17 | 16.09 | Overcast | FEW020 OVC070 | 23.9 | 20.6 | 82% | 24 | 76.23 | 1016.1 | ||||||
| 02 | 19:53 | E 17 | 16.09 | Mostly Cloudy | FEW019 SCT045 BKN070 | 23.3 | 20.6 | 26.1 | 23.3 | 85% | 76.17 | 1015.4 | |||||
| 02 | 18:53 | E 17 | 16.09 | Overcast | FEW022 BKN038 OVC075 | 23.9 | 20 | 79% | 24 | 76.12 | 1014.7 | ||||||
| 02 | 17:53 | E 15 | 16.09 | Overcast | FEW023 FEW034 OVC050 | 24.4 | 20.6 | 79% | 25 | 76.07 | 1014.1 | ||||||
| 02 | 16:53 | NE 11 | 8.05 | Light Rain | SCT021 BKN036 OVC070 | 23.9 | 21.1 | 84% | 24 | 76.05 | 1013.7 | ||||||
| 02 | 15:53 | E 24 | 16.09 | Overcast | SCT024 OVC070 | 25.6 | 20 | 71% | 27 | 76.05 | 1013.7 | ||||||
| 02 | 14:53 | E 24 | 16.09 | Overcast | SCT025 BKN033 OVC075 | 25.6 | 20 | 71% | 27 | 76.07 | 1014.0 | ||||||
| 02 | 13:53 | E 17 | 16.09 | Overcast | SCT023 BKN034 OVC055 | 25.6 | 20.6 | 26.1 | 21.1 | 74% | 27 | 76.1 | 1014.5 | 0.51 | |||
| 02 | 12:53 | Vrbl 11 | 14.48 | Light Rain | FEW027 BKN045 OVC060 | 25.6 | 21.1 | 76% | 27 | 76.2 | 1015.6 | ||||||
| 02 | 11:53 | Vrbl 6 | 16.09 | Overcast | FEW023 SCT041 OVC060 | 25 | 20.6 | 77% | 26 | 76.23 | 1016.2 | ||||||
| 02 | 10:53 | W 9 | 16.09 | Overcast | FEW023 SCT041 OVC060 | 23.9 | 20.6 | 82% | 24 | 76.28 | 1016.6 | 0.15 | 0.51 | ||||
| 02 | 09:53 | W 9 | 16.09 | Overcast | BKN022 OVC028 | 22.2 | 20.6 | 91% | 76.3 | 1017.1 | 0.13 | ||||||
| 02 | 08:53 | W 9 | 6.44 | Light Rain Fog/Mist | BKN022 OVC030 | 21.1 | 19.4 | 90% | 76.3 | 1017.2 | 0.23 | ||||||
| 02 | 07:53 | W 11 | 16.09 | Overcast | BKN023 BKN032 OVC040 | 21.7 | 19.4 | 22.2 | 20.6 | 87% | 76.28 | 1016.8 | 0.03 | 0.64 | |||
| 02 | 06:53 | W 11 | 4.02 | Rain Fog/Mist | FEW019 BKN025 OVC043 | 20.6 | 18.9 | 90% | 76.25 | 1016.4 | 0.23 | ||||||
| 02 | 05:53 | W 11 | 16.09 | Overcast | FEW022 BKN039 OVC055 | 20.6 | 18.9 | 90% | 76.2 | 1015.8 | 0.1 | ||||||
| 02 | 04:53 | SW 7 | 16.09 | Partly Cloudy | FEW021 SCT038 SCT044 | 20.6 | 18.9 | 90% | 76.2 | 1015.7 | 0.28 | ||||||
| 02 | 03:53 | SW 7 | 16.09 | Overcast | FEW020 SCT039 OVC070 | 21.1 | 19.4 | 90% | 76.17 | 1015.5 | 0.28 | ||||||
| 02 | 02:53 | W 6 | 16.09 | Mostly Cloudy | BKN070 | 21.7 | 20 | 90% | 76.2 | 1015.7 | |||||||
| 02 | 01:53 | E 9 | 16.09 | Overcast | FEW020 SCT045 OVC060 | 22.2 | 18.9 | 23.9 | 22.2 | 82% | 76.2 | 1015.9 | 0.13 | 0.13 | |||
| 02 | 00:53 | E 17 | 16.09 | Overcast | FEW028 OVC060 | 23.3 | 19.4 | 79% | 76.25 | 1016.5 | |||||||
| 01 | 23:53 | E 19 | 16.09 | Overcast | FEW023 FEW029 OVC060 | 23.9 | 19.4 | 76% | 24 | 76.3 | 1017.0 | ||||||
| 01 | 22:53 | E 19 | 16.09 | Overcast | FEW024 OVC060 | 23.3 | 19.4 | 79% | 76.33 | 1017.3 | |||||||
| 01 | 21:53 | E 15 | 16.09 | Mostly Cloudy | FEW027 FEW045 BKN065 | 23.3 | 19.4 | 79% | 76.33 | 1017.4 | |||||||
| 01 | 20:53 | E 13 | 16.09 | Mostly Cloudy | BKN060 | 23.3 | 18.9 | 76% | 76.3 | 1016.9 | |||||||
| 01 | 19:53 | E 15 | 16.09 | Partly Cloudy | FEW055 SCT070 | 23.3 | 19.4 | 27.2 | 22.8 | 79% | 76.25 | 1016.4 | |||||
| 01 | 18:53 | NE 13 | 16.09 | Partly Cloudy | SCT024 SCT055 | 23.3 | 19.4 | 79% | 76.23 | 1016.0 | |||||||
| 01 | 17:53 | E 15 | 16.09 | Mostly Cloudy | SCT025 BKN050 | 24.4 | 18.9 | 72% | 25 | 76.2 | 1015.7 | ||||||
| 01 | 16:53 | E 17 | 16.09 | Mostly Cloudy | FEW027 SCT060 BKN070 | 24.4 | 18.9 | 72% | 25 | 76.15 | 1015.1 | ||||||
| 01 | 15:53 | E 26 G 39 | 16.09 | Overcast | FEW026 OVC070 | 26.1 | 19.4 | 67% | 27 | 76.15 | 1015.0 | ||||||
| 01 | 14:53 | NE 30 G 41 | 16.09 | Mostly Cloudy | BKN025 BKN042 BKN075 | 26.7 | 20 | 67% | 28 | 76.17 | 1015.3 | ||||||
| 01 | 13:53 | E 26 | 16.09 | Mostly Cloudy | FEW025 BKN080 | 26.7 | 19.4 | 27.2 | 22.2 | 64% | 28 | 76.23 | 1016.1 | 0.03 | |||
| 01 | 12:53 | NE 28 | 16.09 | Mostly Cloudy | SCT023 BKN045 BKN055 | 27.2 | 20 | 65% | 29 | 76.28 | 1016.8 | ||||||
| 01 | 11:53 | E 24 G 37 | 16.09 | Mostly Cloudy | SCT023 SCT045 BKN055 | 26.7 | 21.1 | 71% | 28 | 76.33 | 1017.3 | ||||||
| 01 | 10:53 | N 7 | 16.09 | Overcast | FEW026 BKN045 OVC055 | 23.9 | 20.6 | 82% | 24 | 76.35 | 1017.7 | 0.03 | 0.03 | ||||
| 01 | 09:53 | W 9 | 16.09 | Light Rain | FEW026 BKN045 OVC055 | 23.3 | 19.4 | 79% | 76.38 | 1018.1 | |||||||
| 01 | 08:53 | NW 17 | 16.09 | Overcast | SCT023 BKN028 OVC080 | 22.8 | 20 | 84% | 76.4 | 1018.3 | |||||||
| 01 | 07:53 | W 15 | 16.09 | Overcast | SCT030 BKN060 OVC075 | 22.8 | 19.4 | 22.8 | 19.4 | 81% | 76.38 | 1018.0 | 0.13 | 1.7 | |||
| 01 | 06:53 | W 9 | 16.09 | Overcast | FEW031 SCT048 OVC085 | 21.1 | 19.4 | 90% | 76.33 | 1017.5 | 0.03 | ||||||
| 01 | 05:53 | W 11 | 9.66 | Light Rain Fog/Mist | SCT026 BKN040 OVC060 | 20 | 18.9 | 93% | 76.3 | 1017.0 | 0.15 | ||||||
| 01 | 04:53 | SE 15 | 16.09 | Light Rain | FEW007 BKN017 OVC047 | 20 | 18.9 | 93% | 76.3 | 1017.1 | 0.41 | 1.4 | |||||
| 01 | 03:53 | W 9 | 8.05 | Rain Fog/Mist | FEW017 BKN026 OVC075 | 20 | 18.9 | 93% | 76.28 | 1016.9 | 0.08 | ||||||
| 01 | 02:53 | Calm | 3.22 | Heavy Rain Fog/Mist | FEW014 OVC023 | 20 | 18.9 | 93% | 76.33 | 1017.3 | 0.91 | ||||||
| 01 | 01:53 | W 15 | 16.09 | Overcast | BKN013 BKN028 OVC034 | 20.6 | 18.9 | 22.2 | 20.6 | 90% | 76.35 | 1017.7 | 0.03 | 0.15 | |||
| 01 | 00:53 | W 13 | 16.09 | Overcast | SCT027 BKN044 OVC055 | 21.1 | 19.4 | 90% | 76.38 | 1018.0 | |||||||
| 30 | 23:53 | W 9 | 16.09 | Mostly Cloudy | SCT027 BKN034 BKN065 | 21.1 | 19.4 | 90% | 76.4 | 1018.6 | |||||||
| 30 | 22:53 | SW 9 | 16.09 | Mostly Cloudy | SCT027 BKN036 BKN065 | 20.6 | 18.9 | 90% | 76.45 | 1019.1 | 0.13 | ||||||
| 30 | 21:53 | SW 7 | 16.09 | Mostly Cloudy | SCT026 SCT036 BKN043 | 21.1 | 18.9 | 87% | 76.45 | 1019.1 | |||||||
| 30 | 20:53 | W 6 | 16.09 | Overcast | BKN027 BKN034 OVC043 | 21.1 | 18.9 | 87% | 76.43 | 1018.9 | 0.13 | ||||||
| Date | Time (hst) | Wind (kph) | Vis. (km) | Weather | Sky Cond. | Air | Dwpt | Max. | Min. | Relative Humidity | Wind Chill (°C) | Heat Index (°C) | altimeter (cm) | sea level (mb) | 1 hr | 3 hr | 6 hr |
| 6 hour | |||||||||||||||||
| Temperature (ºC) | Pressure | Precipitation (cm) | |||||||||||||||